Location: Annweiler
(49.2061°N, 7.9753°E)
Time: 07:33:06
(UTC+00:00)

Daily predictions for brighter satellites

Satellite Brightness Start Highest point End
(mag) Time Altitude Azimuth Time Altitude Azimuth Time Altitude Azimuth
Landsat 7 4.3 19:58:49 10° SE 20:03:22 48° ENE 20:07:57 10° N
STARLINK-1072 4.4 20:00:32 10° WNW 20:04:28 42° SW 20:08:22 10° SE
STARLINK-1208 4.4 20:01:47 10° W 20:05:52 56° NNW 20:09:57 10° ENE
MOS 1 Rocket 4.2 20:01:38 10° N 20:05:53 50° WNW 20:10:02 10° SW
STARLINK-1099 3.7 20:02:43 10° WNW 20:06:52 78° NNE 20:11:01 10° ESE
Cosmos 1461 3.3 20:03:46 10° S 20:07:40 41° ESE 20:11:46 10° NE
STARLINK-1225 3.6 20:03:55 10° WSW 20:08:03 76° SSE 20:12:13 10° ENE
STARLINK-1096 4.5 20:05:33 10° WNW 20:09:25 39° SW 20:13:17 10° SSE
Okean 3 3.6 20:05:42 10° S 20:10:01 83° W 20:14:21 10° N
SAR-Lupe-2 4.4 20:07:31 10° NNE 20:10:49 33° E 20:14:05 10° SSE
STARLINK-1271 4.4 20:06:48 10° W 20:10:54 55° N 20:14:59 10° ENE
Cosmos 2369 Rocket 3.9 20:08:28 10° SE 20:11:16 14° E 20:14:04 10° ENE
STARLINK-1104 3.7 20:07:41 10° WNW 20:11:51 82° NNE 20:16:00 10° ESE
STARLINK-1230 3.6 20:08:53 10° WSW 20:13:01 80° SSE 20:17:11 10° ENE
STARLINK-1212 4.3 20:10:06 10° WNW 20:13:04 38° N 20:16:01 10° ENE
STARLINK-1105 4.3 20:10:35 10° WNW 20:13:31 38° N 20:16:28 10° ENE
NOSS 2-2 (C) 4.4 20:11:13 10° S 20:14:00 22° ESE 20:16:59 10° ENE
STARLINK-1247 4.3 20:11:28 10° WNW 20:14:25 39° N 20:17:23 10° ENE
STARLINK-1227 4.3 20:11:57 10° WNW 20:14:54 38° N 20:17:51 10° ENE
STARLINK-1226 4.3 20:12:48 10° WNW 20:15:47 39° N 20:18:44 10° ENE
STARLINK-1154 4.5 20:11:48 10° W 20:15:53 54° N 20:19:58 10° ENE
STARLINK-1215 4.3 20:13:42 10° WNW 20:16:41 39° N 20:19:38 10° ENE
STARLINK-1144 3.7 20:12:40 10° WNW 20:16:51 86° NNE 20:21:00 10° ESE
SL-4 R/B 3.5 20:14:35 10° WNW 20:16:52 19° WSW 20:19:02 10° SSW
Cosmos 2221 Rocket 3.9 20:13:23 10° SSW 20:17:54 76° W 20:22:30 10° N
STARLINK-1243 3.6 20:13:52 10° WSW 20:18:01 85° SSE 20:22:11 10° ENE
STARLINK-1217 4.3 20:15:32 10° WNW 20:18:30 39° N 20:21:28 10° ENE
NOSS 3-2 (A) 4.4 20:11:50 10° NW 20:19:00 60° NE 20:27:10 10° ESE
STARLINK-1229 4.3 20:16:27 10° WNW 20:19:24 39° N 20:22:23 10° ENE
SPOT 5 3.9 20:14:40 10° SE 20:19:33 40° ENE 20:24:31 10° N
STARLINK-1270 4.3 20:17:21 10° WNW 20:20:18 39° N 20:23:17 10° ENE
STARLINK-1197 4.5 20:16:47 10° W 20:20:51 53° N 20:24:56 10° ENE
NOSS 8 (F) 4.1 20:18:00 10° SSW 20:21:10 63° SE 20:24:11 10° NE
Meteor 1-13 Rocket 4.3 20:15:55 10° S 20:21:34 82° E 20:27:21 10° NNE
STARLINK-1103 3.6 20:17:38 10° WNW 20:21:49 90° ENE 20:25:58 10° ESE
STARLINK-1189 4.2 20:19:08 10° WNW 20:22:07 39° N 20:25:05 10° ENE
STARLINK-1236 3.6 20:18:50 10° WSW 20:22:58 89° SSE 20:27:09 10° ENE
STARLINK-1188 4.2 20:20:04 10° WNW 20:23:02 39° N 20:26:00 10° ENE
STARLINK-1187 4.2 20:21:10 10° WNW 20:24:06 39° N 20:27:04 10° ENE
ERS-1 Rocket 3.5 20:19:52 10° SE 20:24:41 48° ENE 20:29:32 10° N
STARLINK-1191 4.2 20:22:31 10° WNW 20:25:28 39° N 20:28:25 10° ENE
STARLINK-1221 4.2 20:23:28 10° WNW 20:26:26 39° N 20:29:22 10° ENE
STARLINK-1101 3.6 20:22:37 10° WNW 20:26:48 86° SSW 20:30:56 10° ESE
STARLINK-1222 4.2 20:24:19 10° WNW 20:27:16 39° N 20:30:14 10° ENE
STARLINK-1214 4.2 20:25:13 10° WNW 20:28:10 39° N 20:31:08 10° ENE
Cosmos 1066 Rocket 4.3 20:24:02 10° S 20:29:14 52° E 20:34:25 10° NNE
USA 238 DEB 4.1 20:23:52 10° NW 20:30:59 64° NE 20:38:21 10° ESE
USA 245 2.3 20:28:04 10° SSE 20:31:02 86° WSW 20:33:33 10° NNW
USA 238 4.2 20:23:58 10° NW 20:31:04 64° NE 20:38:27 10° ESE
STARLINK-1102 3.6 20:27:36 10° WNW 20:31:47 82° SSW 20:35:48 11° ESE
STARLINK-1228 4.2 20:29:17 10° WNW 20:32:40 46° N 20:36:04 10° E
STARLINK-1269 3.7 20:28:48 10° WSW 20:32:57 83° NNW 20:37:07 10° ENE
Okean 1 Rocket 3.2 20:29:11 10° N 20:33:39 65° ENE 20:37:54 11° SSE
Cosmos 1805 4.0 20:30:11 10° N 20:33:54 39° ENE 20:37:07 13° SE
Cosmos 2278 Rocket 3.3 20:28:37 10° SW 20:34:07 50° NW 20:39:41 10° NNE
TSX-5 4.3 20:28:43 10° SSW 20:34:16 71° ESE 20:38:33 10° NE
Okean 2 Rocket 4.2 20:30:06 10° NNW 20:34:17 42° W 20:38:25 10° SSW
Cosmos 1741 Rocket 4.4 20:29:07 10° NNW 20:34:18 64° WSW 20:39:27 10° S
Resurs 01 Rocket 2.9 20:30:30 10° SSW 20:34:39 38° W 20:38:51 10° NNW
Nadezhda 4 Rocket 4.1 20:29:45 10° S 20:35:43 57° E 20:41:42 10° NNE
STARLINK-1235 4.1 20:32:56 10° WNW 20:36:03 43° N 20:39:10 10° E
STARLINK-1111 3.6 20:32:35 10° WNW 20:36:45 78° SSW 20:40:34 12° ESE
STARLINK-1200 3.8 20:33:46 10° WSW 20:37:55 80° NNW 20:42:05 10° ENE
Cosmos 1455 Rocket 4.5 20:35:31 10° NNE 20:39:05 24° ENE 20:42:18 12° ESE
STARLINK-1073 3.6 20:37:34 10° WNW 20:41:43 73° SSW 20:45:22 13° SE
SL-8 R/B 3.8 20:37:06 10° W 20:41:51 60° SSW 20:46:17 12° ESE
STARLINK-1192 3.8 20:38:46 10° WSW 20:42:55 76° NNW 20:47:05 10° ENE
ATLAS CENTAUR R/B 3.8 20:44:48 10° NNW 20:45:14 10° N 20:45:39 10° N
Cosmos 371 Rocket 4.1 20:41:14 10° SW 20:45:59 54° WNW 20:50:49 10° NNE
ATLAS 3B CENTAUR R/B 4.4 20:37:41 10° SW 20:46:20 19° S 20:50:57 13° SSE
STARLINK-1121 3.7 20:42:33 10° WNW 20:46:41 69° SSW 20:50:08 14° SE
SL-4 R/B 3.7 20:44:08 10° S 20:47:32 20° SE 20:50:59 10° E
STARLINK-1244 3.9 20:43:45 10° WSW 20:47:54 73° NNW 20:52:03 10° ENE
Cosmos 1110 Rocket 4.0 20:42:57 10° S 20:48:04 64° ESE 20:53:12 10° NNE
Terra 2.3 20:44:22 13° SE 20:48:20 48° ENE 20:52:56 10° N
Spot 2 Rocket 3.9 20:44:38 10° S 20:49:35 60° WSW 20:54:37 10° NNW
Abrixas rocket 2.9 20:47:35 10° W 20:50:16 31° SSW 20:51:50 18° SSE
SPOT 1/Viking Rocket 3.6 20:45:16 10° SSE 20:50:26 80° WSW 20:55:38 10° NNW
CARTOSAT-1 3.6 20:47:49 13° SSE 20:51:33 74° ENE 20:55:54 10° N
STARLINK-1106 3.7 20:47:33 10° WNW 20:51:41 65° SSW 20:54:56 16° SE
ERBS 4.4 20:49:15 10° W 20:52:13 30° NNW 20:55:13 10° NE
NOSS 8 (H) 4.0 20:49:12 10° SW 20:52:19 78° SE 20:55:25 10° NE
STARLINK-1138 3.9 20:48:45 10° WSW 20:52:53 70° NNW 20:57:02 10° ENE
STARLINK-1234 3.9 20:50:43 10° WNW 20:53:55 49° NNE 20:57:07 10° E
STARLINK-1112 3.8 20:52:31 10° WNW 20:56:36 61° SSW 20:59:41 17° SE
STARLINK-1143 4.0 20:53:43 10° WSW 20:57:51 67° NNW 21:02:00 10° ENE
STARLINK-1209 3.7 20:56:41 10° WNW 20:59:55 52° NNE 21:03:10 10° E
STARLINK-1128 3.8 20:57:30 10° WNW 21:01:34 57° SSW 21:04:28 18° SE
STARLINK-1241 4.1 20:58:46 10° W 21:02:53 65° NNW 21:07:01 10° ENE
Cosmos 1331 Rocket 3.9 20:59:42 10° SSW 21:04:51 79° ESE 21:10:04 10° NNE
Aureole 2 Rocket 3.0 21:02:39 10° SW 21:05:40 49° WNW 21:08:33 10° NNE
STARLINK-1113 3.9 21:02:30 10° WNW 21:06:33 53° SSW 21:09:15 19° SE
Cosmos 1733 3.3 21:03:16 10° N 21:07:04 60° ENE 21:09:32 20° SSE
STARLINK-1239 4.1 21:03:45 10° W 21:07:52 63° NNW 21:11:59 10° ENE
Cosmos 1437 Rocket 4.2 21:07:01 10° SW 21:10:33 36° WNW 21:14:09 10° N
STARLINK-1119 4.0 21:07:31 10° WNW 21:11:32 49° SW 21:14:04 21° SSE
COSMOS 2455 4.5 21:09:45 13° ESE 21:11:33 15° ESE 21:14:49 10° ENE
STARLINK-1240 4.2 21:08:44 10° W 21:12:50 60° NNW 21:16:57 10° ENE
Cosmos 1378 3.1 21:09:41 13° S 21:12:58 89° E 21:16:42 10° N
Cosmos 1486 Rocket 4.4 21:09:10 10° NNW 21:14:24 56° ENE 21:18:13 18° SE
Cosmos 1302 Rocket 4.2 21:10:14 12° S 21:14:59 53° ESE 21:20:09 10° NNE
Cosmos 1271 Rocket 4.3 21:14:22 17° ESE 21:15:49 21° E 21:18:49 10° NE
USA 215 4.0 21:09:35 10° E 21:15:54 52° NNE 21:22:13 10° WNW
Cosmos 1544 Rocket 4.3 21:11:57 10° N 21:16:03 39° ENE 21:18:39 19° SE
STARLINK-1114 4.1 21:12:29 10° WNW 21:16:28 46° SW 21:18:49 22° SSE
Cosmos 1242 Rocket 3.7 21:15:26 21° SE 21:16:56 28° E 21:20:08 10° NNE
Cosmos 304 Rocket 4.4 21:12:40 10° SW 21:17:22 57° WNW 21:22:07 10° NNE
MTI 4.2 21:14:37 10° NNE 21:17:37 42° E 21:18:58 26° SSE
STARLINK-1203 4.3 21:13:34 10° W 21:17:44 59° NNW 21:21:54 10° ENE
STARLINK-1216 4.3 21:13:43 10° W 21:17:49 59° NNW 21:21:56 10° ENE
Lacrosse 5 4.1 21:15:59 10° W 21:18:33 14° WSW 21:21:08 10° SSW
STARLINK-60 4.2 21:20:10 22° ESE 21:20:10 22° ESE 21:22:06 10° E
Cosmos 1092 Rocket 3.9 21:15:31 12° S 21:21:13 78° E 21:27:23 10° NNE
STARLINK-1130 (DARKSAT) 4.2 21:17:30 10° WNW 21:21:26 43° SW 21:23:37 23° SSE
NOSS 2-2 (D) 3.1 21:18:34 10° SW 21:22:09 89° NW 21:26:16 10° NE
STARLINK-1237 4.3 21:18:44 10° W 21:22:49 57° NNW 21:26:56 10° ENE
CENTAUR R/B 3.3 21:15:40 10° NW 21:23:35 75° NE 21:31:07 15° SE
Cosmos 1707 4.3 21:24:35 18° ESE 21:25:56 22° E 21:28:58 10° NE
STARLINK-1084 4.3 21:22:30 10° WNW 21:26:24 40° SW 21:28:24 24° SSE
ATLAS 3B R/B 3.5 21:20:16 10° NW 21:26:43 46° NE 21:33:23 10° ESE
SL-27 R/B 2.4 21:24:02 10° NNW 21:27:39 79° ENE 21:29:28 27° SSE
STARLINK-1202 4.4 21:23:44 10° W 21:27:49 55° NNW 21:31:55 10° ENE
NOSS 3-2 (C) 4.1 21:21:24 10° NW 21:28:51 85° NE 21:35:37 17° SE
Cosmos 1766 3.7 21:26:07 10° NNW 21:30:02 58° W 21:32:47 19° S
STARLINK-1254 4.5 21:26:50 10° WNW 21:30:53 50° N 21:34:56 10° E
Cosmos 1726 4.0 21:28:20 10° NNE 21:31:04 19° ENE 21:32:50 14° ESE
STARLINK-1098 4.4 21:27:30 10° WNW 21:31:21 37° SW 21:33:11 24° SSE
Cosmos 1867 4.1 21:28:25 10° NNW 21:33:48 54° NE 21:38:07 16° ESE
COSMOS 2487 4.4 21:32:25 10° N 21:35:06 20° NE 21:37:03 14° E
STARLINK-1231 4.5 21:31:49 10° WNW 21:35:52 51° N 21:39:55 10° E
STARLINK-1123 4.5 21:32:30 10° WNW 21:36:17 34° SW 21:37:57 25° S
Cosmos 2195 Rocket 4.5 21:30:45 14° S 21:36:21 86° E 21:42:38 10° N
STARLINK-1246 4.4 21:33:46 10° W 21:37:50 53° N 21:41:55 10° ENE
Cosmos 1943 Rocket 2.1 21:32:38 10° SSW 21:38:11 83° ESE 21:43:49 10° NNE
NOSS 2-2 (E) 4.1 21:35:58 10° WSW 21:39:32 53° NW 21:43:45 10° NE
NOSS 3-4 (A) 4.1 21:36:32 20° SSE 21:39:44 34° ESE 21:45:18 10° NE
NOSS 3-4 (C) 4.1 21:36:40 21° SSE 21:39:51 34° ESE 21:45:24 10° NE
STARLINK-1232 4.4 21:36:50 10° WNW 21:40:53 52° N 21:44:57 10° E
Cosmos 2082 Rocket 4.5 21:39:12 10° WNW 21:42:22 15° W 21:45:29 10° SW
STARLINK-1224 4.5 21:38:46 10° W 21:42:49 52° N 21:46:53 10° ENE
SeaSat 1 3.4 21:38:36 10° NE 21:42:52 29° ESE 21:44:34 23° SE
EO 1 Del DPAF 4.2 21:40:00 10° NNE 21:43:24 30° E 21:44:29 26° SE
STARLINK-1208 4.4 21:41:47 10° WNW 21:45:52 53° N 21:49:56 10° E
Cosmos 1975 Rocket 3.2 21:44:36 17° SSW 21:47:59 72° WNW 21:52:24 10° N
STARLINK-1212 3.0 21:46:03 10° WNW 21:49:10 72° NNE 21:50:47 25° ESE
STARLINK-1105 3.0 21:46:31 10° WNW 21:49:37 73° NNE 21:51:13 26° ESE
STARLINK-1247 3.0 21:47:23 10° WNW 21:50:31 74° NNE 21:52:06 26° ESE
STARLINK-1271 4.3 21:46:48 10° WNW 21:50:53 54° N 21:54:58 10° E
Meteor 2-10 4.5 21:46:01 10° N 21:50:55 47° ENE 21:53:43 23° SE
STARLINK-1227 2.9 21:47:53 10° WNW 21:51:00 74° NNE 21:52:32 27° ESE
Cosmos 292 Rocket 3.8 21:48:20 21° S 21:51:31 67° ESE 21:56:21 10° NNE
BREEZE-M DEB (TANK) 3.5 21:37:17 10° WSW 21:51:31 77° SSE 21:55:16 10° E
STARLINK-1226 2.9 21:48:44 10° WNW 21:51:52 75° NNE 21:53:23 27° ESE
BREEZE-M DEB (TANK) 2.8 21:48:21 10° W 21:52:20 88° N 21:56:09 10° E
STARLINK-1215 2.9 21:49:39 10° WNW 21:52:46 76° NNE 21:54:16 28° ESE
S3M 4.2 21:48:13 10° N 21:54:19 59° ENE 21:58:10 23° SSE
Cosmos 2369 Rocket 2.1 21:49:04 12° SSW 21:54:23 81° ESE 22:00:03 10° NNE
STARLINK-1217 2.9 21:51:27 10° WNW 21:54:35 77° NNE 21:56:00 29° ESE
STARLINK-1229 2.9 21:52:22 10° WNW 21:55:30 78° NNE 21:56:54 30° ESE
STARLINK-1154 4.3 21:51:48 10° WNW 21:55:53 55° N 21:59:58 10° E
STARLINK-1270 2.9 21:53:15 10° WNW 21:56:24 79° NNE 21:57:45 31° ESE
SPOT 5 4.3 21:53:31 13° SSW 21:57:37 35° W 22:02:32 10° NNW
Aureole 3 Rocket 4.3 21:51:52 10° N 21:58:01 90° NW 22:03:53 21° S
STARLINK-1189 2.8 21:55:04 10° WNW 21:58:11 81° NNE 21:59:28 32° ESE
STARLINK-1188 2.8 21:55:58 10° WNW 21:59:06 82° NNE 22:00:22 33° ESE
STARLINK-1187 2.7 21:57:04 10° WNW 22:00:11 89° NE 22:01:14 38° ESE
ATLAS CENTAUR R/B 2.4 21:59:35 28° SE 22:00:12 29° ESE 22:03:50 10° ENE
Cosmos 1340 Rocket 3.7 21:56:56 10° N 22:00:46 38° ENE 22:02:31 25° ESE
STARLINK-1197 4.2 21:56:46 10° WNW 22:00:51 57° NNE 22:04:57 10° E
STARLINK-1191 2.8 21:58:24 10° WNW 22:01:31 84° NNE 22:02:39 36° ESE
STARLINK-1221 2.8 21:59:22 10° WNW 22:02:29 85° NNE 22:03:35 37° ESE
Aureole 3 4.4 21:59:58 10° NNE 22:02:34 22° ENE 22:03:24 20° E
STARLINK-1222 2.8 22:00:12 10° WNW 22:03:19 86° NNE 22:04:23 38° ESE
STARLINK-1214 2.8 22:01:06 10° WNW 22:04:13 87° NNE 22:05:16 38° ESE
Thor Agena Rocket 3.7 21:59:02 10° NNE 22:04:18 61° ESE 22:07:12 26° S
Cosmos 1025 Rocket 3.1 22:02:58 31° SSE 22:04:49 61° E 22:09:05 10° NNE
Okean 2 4.5 22:02:00 13° SW 22:05:25 41° WNW 22:09:23 10° N
EXPRESS MD2 4.1 22:01:36 10° W 22:05:35 89° N 22:13:59 10° E
Cosmos 2026 Rocket 4.2 22:00:23 15° SSW 22:05:44 70° WNW 22:12:07 10° N
STARLINK-1198 4.2 22:01:45 10° WNW 22:05:51 58° NNE 22:09:57 10° E
ATLAS 2AS CENTAUR R/B 3.1 22:00:30 12° SSW 22:07:48 60° ESE 22:15:35 10° NE
Cosmos 1553 Rocket 4.0 22:01:32 10° N 22:07:52 86° W 22:11:43 25° S
BREEZE M DEB (TANK) 1.6 22:04:41 10° W 22:07:53 88° SW 22:08:32 41° E
Cosmos 1656 Rocket 3.8 22:04:50 24° S 22:08:03 55° ESE 22:13:29 10° NE
Cosmos 1953 2.6 22:05:14 10° N 22:09:09 54° ENE 22:10:41 33° SE
BREEZE-M DEB (TANK) 4.2 21:56:08 10° WNW 22:09:29 63° SSW 22:11:56 27° SE
STARLINK-1228 3.1 22:06:34 10° WNW 22:10:03 71° SSW 22:11:08 41° SE
Cosmos 1470 2.9 22:06:24 10° NNW 22:10:15 65° W 22:11:51 33° SSW
STARLINK-1199 4.1 22:06:45 10° WNW 22:10:52 60° NNE 22:14:58 10° E
STARLINK-1235 2.8 22:09:17 10° WNW 22:12:31 70° SSW 22:13:12 50° SE
APEX 4.2 22:06:47 13° SSW 22:12:34 83° ESE 22:17:51 10° NNE
Cosmos 2292 Rocket 4.1 22:13:24 28° ESE 22:14:01 30° E 22:16:55 10° NNE
Cosmos 968 Rocket 3.6 22:09:50 10° NNW 22:14:56 63° WSW 22:17:31 28° S
STARLINK-1210 4.0 22:11:43 10° WNW 22:15:51 62° NNE 22:19:58 10° E
Cosmos 1455 Rocket 4.1 22:13:02 10° NNW 22:17:03 38° W 22:19:25 21° SSW
Cosmos 1655 Rocket 4.0 22:15:01 26° S 22:18:44 71° E 22:25:00 10° NNE
SL-4 R/B 2.2 22:20:18 27° NE 22:20:18 27° NE 22:21:55 10° N
STARLINK-1219 4.0 22:16:42 10° WNW 22:20:50 65° NNE 22:24:52 10° E
ATLAS 5 CENTAUR R/B 1.7 22:21:46 40° S 22:22:27 47° SE 22:24:44 10° ENE
Cosmos 1758 3.8 22:19:45 10° NNW 22:23:45 55° W 22:25:25 31° SSW
STARLINK-52 4.5 22:26:27 23° E 22:26:27 23° E 22:28:01 10° ENE
STARLINK-1211 3.9 22:21:42 10° WNW 22:25:51 67° NNE 22:29:40 12° E
Terra 3.5 22:23:15 13° SW 22:26:19 24° W 22:30:10 10° NW
SL-4 R/B 2.3 22:21:53 10° SW 22:26:40 66° SSE 22:31:28 10° ENE
Cosmos 2228 4.0 22:22:55 10° N 22:26:51 35° ENE 22:28:36 25° ESE
STARLINK-1234 3.2 22:27:04 10° WNW 22:30:16 50° SSW 22:30:17 50° SSW
STARLINK-1245 3.8 22:26:40 10° WNW 22:30:49 70° NNE 22:34:26 13° ESE
In-Cosmos 22 4.2 22:30:05 31° SSE 22:32:33 63° E 22:37:46 10° NNE
Cosmos 1503 Rocket 4.3 22:29:51 10° NNW 22:35:05 59° WSW 22:37:35 30° S
STARLINK-1233 3.8 22:31:38 10° WNW 22:35:47 73° NNE 22:39:12 15° ESE
STARLINK-1209 3.5 22:33:16 10° WNW 22:36:13 43° SW 22:36:13 43° SW
Cosmos 2266 Rocket 3.9 22:33:43 28° S 22:37:00 71° E 22:43:02 10° NNE
STARLINK-1204 3.7 22:36:37 10° WNW 22:40:47 76° NNE 22:43:59 16° ESE
SJ 16-02 3.9 22:40:10 10° NNE 22:42:49 15° NE 22:45:28 10° E
STARLINK-1238 3.7 22:41:37 10° WNW 22:45:47 79° NNE 22:48:47 18° ESE
Cosmos 1536 Rocket 3.9 22:45:44 28° SW 22:47:49 57° WNW 22:52:09 10° N
Cosmos 1674 3.0 22:48:20 43° SE 22:49:08 52° E 22:52:50 10° NNE
STARLINK-1201 3.6 22:46:36 10° WNW 22:50:46 83° NNE 22:53:33 20° ESE
Cosmos 1271 Rocket 4.0 22:49:29 20° SW 22:51:35 35° WNW 22:55:15 10° N
STARLINK-1240 4.5 22:48:46 10° WNW 22:52:49 51° N 22:56:53 10° E
STARLINK-60 3.1 22:52:21 11° WSW 22:55:19 71° NNW 22:58:31 10° ENE
STARLINK-1206 3.6 22:51:36 10° WNW 22:55:45 87° NNE 22:58:21 22° ESE
Cosmos 883 Rocket 4.4 22:49:36 10° N 22:55:46 83° W 22:58:57 30° S
COSMOS 2455 2.8 22:52:50 25° SSW 22:56:30 78° ESE 23:02:33 10° NE
Cosmos 2219 4.2 22:52:15 10° NNW 22:57:37 41° NE 23:02:18 13° ESE
STARLINK-1216 4.5 22:53:45 10° WNW 22:57:49 52° N 23:01:53 10° E
STARLINK-1203 4.5 22:53:50 10° WNW 22:57:57 52° N 23:02:05 10° E
USA 215 3.2 22:52:57 14° SE 22:58:43 83° SW 23:05:18 10° WNW
STARLINK-1205 3.5 22:56:33 10° WNW 23:00:43 89° SSW 23:03:07 24° ESE
Cosmos 1707 4.1 22:59:44 21° WSW 23:01:38 33° WNW 23:05:12 10° N
Cosmos 2297 Rocket 3.4 22:56:36 10° NNW 23:01:52 37° NE 23:07:00 10° ESE
STARLINK-1237 4.4 22:58:45 10° WNW 23:02:49 53° N 23:06:53 10° E
Helios 1A 3.1 23:01:35 38° SE 23:03:07 69° ENE 23:07:17 10° N
Lacrosse 4 Rocket 4.1 23:02:17 10° N 23:05:17 18° NE 23:08:14 10° E
STARLINK-1218 3.5 23:01:33 10° WNW 23:05:43 85° SSW 23:07:55 27° ESE
Cosmos 1726 3.1 23:02:58 10° NNW 23:06:25 36° W 23:07:20 31° SW
Cosmos 1174 3.5 23:06:36 44° SW 23:07:33 75° NW 23:11:25 10° NE
STARLINK-1202 4.4 23:03:45 10° WNW 23:07:50 54° N 23:11:54 10° E
ALOS 2 2.8 23:07:47 38° SSW 23:09:16 60° W 23:13:37 10° NNW
Timation 2 Rocket 3.9 23:03:02 10° NNW 23:09:25 88° ENE 23:12:55 27° SSE
Cosmos 2058 Rocket 3.6 23:05:49 10° N 23:10:11 52° ENE 23:11:58 32° SE
COSMOS 2487 3.4 23:07:05 10° NW 23:10:15 33° WSW 23:10:32 32° WSW
STARLINK-1254 3.5 23:06:32 10° WNW 23:10:41 81° SSW 23:12:41 30° ESE
CENTAUR R/B 3.9 23:06:47 10° NW 23:14:05 37° WSW 23:18:17 24° SSW
STARLINK-1372 4.4 23:15:07 31° ESE 23:15:07 31° ESE 23:17:49 10° ENE
STARLINK-1231 3.5 23:11:30 10° WNW 23:15:39 76° SSW 23:17:27 33° SE
Meteor 2-5 Rocket 3.8 23:14:12 33° S 23:16:42 67° E 23:22:19 10° NNE
ATLAS 3B R/B 2.9 23:11:01 10° NW 23:17:38 57° WSW 23:21:09 29° S
STARLINK-1246 4.3 23:13:44 10° WNW 23:17:50 56° NNE 23:21:55 10° E
STARLINK-1378 4.2 23:18:28 33° ESE 23:18:28 33° ESE 23:21:20 10° ENE
SL-14 R/B 3.9 23:19:11 36° SE 23:20:02 42° E 23:23:41 10° NNE
Cosmos 1606 Rocket 3.6 23:15:56 10° NNW 23:20:14 66° W 23:21:36 41° SSW
FALCON 9 DEB 3.0 23:20:07 66° S 23:20:20 69° SSE 23:23:46 10° ENE
SeaSat 1 3.1 23:15:48 10° NNE 23:20:35 51° NW 23:24:20 16° SW
STARLINK-1232 3.5 23:16:30 10° WNW 23:20:38 72° SSW 23:22:15 35° SE
STARLINK-1379 4.1 23:21:51 36° ESE 23:21:51 36° ESE 23:24:53 10° ENE
Cosmos 1943 Rocket 4.3 23:18:16 10° W 23:22:39 23° NW 23:27:06 10° N
STARLINK-1329 4.1 23:23:14 37° SE 23:23:14 37° SE 23:26:21 10° ENE
STARLINK-1224 4.2 23:18:43 10° WNW 23:22:48 58° NNE 23:26:55 10° E
Cosmos 2098 Rocket 4.4 23:20:08 27° SSW 23:24:26 80° W 23:31:58 10° N
STARLINK-29 3.0 23:24:02 36° W 23:25:12 76° NNW 23:28:25 10° ENE
STARLINK-1208 3.5 23:21:28 10° WNW 23:25:35 68° SSW 23:27:00 39° SE
STARLINK-1362 3.9 23:26:40 40° SE 23:26:40 40° SE 23:29:57 10° ENE
SL-16 R/B 4.5 23:22:10 10° ESE 23:26:47 23° NE 23:31:27 10° N
STARLINK-1225 4.2 23:23:43 10° WNW 23:27:50 60° NNE 23:31:56 10° E
ATLAS CENTAUR R/B 1.9 23:25:51 10° NW 23:27:56 46° NNE 23:31:40 10° ESE
STARLINK-1373 3.8 23:30:05 43° SE 23:30:05 43° SE 23:33:33 10° ENE
NOSS 3-4 (A) 3.9 23:24:21 10° WSW 23:30:17 59° NW 23:36:43 10° NE
NOSS 3-4 (C) 3.9 23:24:26 10° WSW 23:30:23 60° NW 23:36:49 10° NE
STARLINK-1271 3.5 23:26:29 10° WNW 23:30:35 64° SSW 23:31:48 41° SSE
RESURS DK-1 2.3 23:29:48 43° SSW 23:31:06 86° ESE 23:35:16 10° NNE
STARLINK-1365 3.7 23:31:12 46° SE 23:31:12 46° SE 23:34:49 10° ENE
STARLINK-1230 4.1 23:28:41 10° WNW 23:32:48 62° NNE 23:36:55 10° E
STARLINK-1390 3.7 23:33:35 46° SE 23:33:35 46° SE 23:37:10 10° ENE
Cosmos 2315 Rocket 4.3 23:27:50 10° NNW 23:33:52 55° W 23:36:59 28° SSW
Cosmos 2084 3.5 23:33:37 40° SSW 23:35:06 72° SE 23:39:35 10° NE
STARLINK-1154 3.6 23:31:27 10° WNW 23:35:33 59° SSW 23:36:35 44° SSE
BREEZE-M R/B 3.8 23:31:45 19° SW 23:36:21 45° SSE 23:40:04 10° E
Cosmos 1626 2.1 23:36:00 51° SSE 23:36:47 69° E 23:40:30 10° NNE
STARLINK-1243 4.0 23:33:41 10° WNW 23:37:49 64° NNE 23:41:56 10° E
Cosmos 2227 Rocket 2.7 23:33:20 10° NNW 23:38:57 56° NE 23:43:29 16° SE
ATLAS CENTAUR R/B 2.4 23:35:42 15° WSW 23:39:01 43° NW 23:42:54 10° NNE
Cosmos 2369 Rocket 4.3 23:34:33 10° W 23:39:04 24° NW 23:43:37 10° N
Okean 1-7 Rocket 3.6 23:37:39 40° S 23:39:13 82° E 23:43:47 10° NNE
STARLINK-1197 3.6 23:36:26 10° WNW 23:40:30 56° SSW 23:41:21 45° SSE
Cosmos 1908 4.3 23:38:15 10° NNW 23:41:41 32° W 23:42:29 29° WSW
CZ-4 R/B 4.1 23:37:21 10° NNE 23:42:04 56° E 23:43:50 35° SSE
STARLINK-1236 4.0 23:38:39 10° WNW 23:42:48 66° NNE 23:46:55 10° E
Nadezhda 2 Rocket 4.4 23:39:44 30° SSW 23:42:55 82° W 23:49:06 10° N
STARLINK-1198 3.7 23:41:25 10° WNW 23:45:27 52° SSW 23:46:07 46° S
Landsat 4 3.8 23:46:16 10° N 23:49:57 63° WNW 23:51:00 42° SW
STARLINK-1199 3.8 23:46:26 10° WNW 23:50:26 48° SW 23:50:55 46° S
STARLINK-1269 3.8 23:48:38 10° WNW 23:52:47 72° NNE 23:56:55 10° ESE
Meteor 2-21 Rocket 4.4 23:50:06 31° S 23:53:18 86° E 23:59:32 10° N
STARLINK-1210 3.8 23:51:25 10° WNW 23:55:23 45° SW 23:55:42 44° SSW
